Time,TemperatureF,DewpointF,PressureIn,WindDirection,WindDirectionDegrees,WindSpeedMPH,WindSpeedGustMPH,Humidity,HourlyPrecipIn,Conditions,Clouds,dailyrainin,SoftwareType,DateUTC
2013-02-27 00:02:00,54.0,-99.9,30.19,SSW,198,2.0,3.0,-999,-99.99,,,-99.99,,2013-02-27 05:02:00,
2013-02-27 00:12:00,54.0,-99.9,30.19,SSW,198,2.0,3.0,-999,-99.99,,,-99.99,,2013-02-27 05:12:00,
2013-02-27 00:22:00,54.0,-99.9,30.19,SSW,198,2.0,3.0,-999,-99.99,,,-99.99,,2013-02-27 05:22:00,
2013-02-27 00:32:00,54.0,-99.9,30.19,SSW,198,2.0,3.0,-999,-99.99,,,-99.99,,2013-02-27 05:32:00,
2013-02-27 00:42:00,54.0,-99.9,30.19,SSW,198,2.0,3.0,-999,-99.99,,,-99.99,,2013-02-27 05:42:00,
2013-02-27 01:02:00,53.0,-99.9,30.20,West,266,2.0,3.0,-999,-99.99,,,-99.99,,2013-02-27 06:02:00,
2013-02-27 01:11:00,53.0,-99.9,30.20,West,266,2.0,3.0,-999,-99.99,,,-99.99,,2013-02-27 06:11:00,
2013-02-27 01:22:00,53.0,-99.9,30.21,WNW,285,4.0,4.0,-999,-99.99,,,-99.99,,2013-02-27 06:22:00,
2013-02-27 01:33:00,53.0,-99.9,30.21,West,281,3.0,4.0,-999,-99.99,,,-99.99,,2013-02-27 06:33:00,
2013-02-27 01:42:00,53.0,-99.9,30.21,West,281,3.0,4.0,-999,-99.99,,,-99.99,,2013-02-27 06:42:00,
2013-02-27 01:52:00,52.0,-99.9,30.21,SE,124,0.0,1.0,-999,-99.99,,,-99.99,,2013-02-27 06:52:00,
2013-02-27 02:01:00,53.0,-99.9,30.21,SE,133,2.0,3.0,-999,-99.99,,,-99.99,,2013-02-27 07:01:00,
2013-02-27 02:12:00,53.0,-99.9,30.21,SSE,162,3.0,3.0,-999,-99.99,,,-99.99,,2013-02-27 07:12:00,
2013-02-27 02:22:00,53.0,-99.9,30.21,SSE,162,3.0,3.0,-999,-99.99,,,-99.99,,2013-02-27 07:22:00,
2013-02-27 02:32:00,53.0,-99.9,30.22,South,185,3.0,4.0,-999,-99.99,,,-99.99,,2013-02-27 07:32:00,
2013-02-27 02:42:00,53.0,-99.9,30.22,South,181,2.0,3.0,-999,-99.99,,,-99.99,,2013-02-27 07:42:00,
2013-02-27 02:52:00,53.0,-99.9,30.22,South,175,2.0,2.0,-999,-99.99,,,-99.99,,2013-02-27 07:52:00,
2013-02-27 03:01:00,52.0,-99.9,30.22,SSE,167,2.0,3.0,-999,-99.99,,,-99.99,,2013-02-27 08:01:00,
2013-02-27 03:11:00,52.0,-99.9,30.22,SE,130,1.0,2.0,-999,-99.99,,,-99.99,,2013-02-27 08:11:00,
2013-02-27 03:22:00,52.0,-99.9,30.22,SE,130,1.0,2.0,-999,-99.99,,,-99.99,,2013-02-27 08:22:00,
2013-02-27 03:32:00,52.0,-99.9,30.22,WSW,239,2.0,3.0,-999,-99.99,,,-99.99,,2013-02-27 08:32:00,
2013-02-27 03:42:00,52.0,-99.9,30.22,West,263,1.0,2.0,-999,-99.99,,,-99.99,,2013-02-27 08:42:00,
2013-02-27 03:53:00,52.0,-99.9,30.22,West,261,0.0,1.0,-999,-99.99,,,-99.99,,2013-02-27 08:53:00,
2013-02-27 04:02:00,51.0,-99.9,30.22,ESE,104,2.0,2.0,-999,-99.99,,,-99.99,,2013-02-27 09:02:00,
2013-02-27 04:12:00,51.0,-99.9,30.22,ESE,104,2.0,2.0,-999,-99.99,,,-99.99,,2013-02-27 09:12:00,
2013-02-27 04:22:00,51.0,-99.9,30.22,ESE,104,2.0,2.0,-999,-99.99,,,-99.99,,2013-02-27 09:22:00,
2013-02-27 04:32:00,50.0,-99.9,30.22,ESE,102,3.0,4.0,-999,-99.99,,,-99.99,,2013-02-27 09:32:00,
2013-02-27 04:42:00,50.0,-99.9,30.22,ESE,102,3.0,4.0,-999,-99.99,,,-99.99,,2013-02-27 09:42:00,
2013-02-27 04:52:00,51.0,-99.9,30.23,SE,127,2.0,4.0,-999,-99.99,,,-99.99,,2013-02-27 09:52:00,
2013-02-27 05:01:00,51.0,-99.9,30.23,SE,143,1.0,2.0,-999,-99.99,,,-99.99,,2013-02-27 10:01:00,
2013-02-27 05:12:00,51.0,-99.9,30.23,South,186,3.0,4.0,-999,-99.99,,,-99.99,,2013-02-27 10:12:00,
2013-02-27 05:22:00,51.0,-99.9,30.23,SW,236,4.0,6.0,-999,-99.99,,,-99.99,,2013-02-27 10:22:00,
2013-02-27 05:32:00,51.0,-99.9,30.24,WSW,237,4.0,5.0,-999,-99.99,,,-99.99,,2013-02-27 10:32:00,
2013-02-27 05:42:00,51.0,-99.9,30.24,SW,225,4.0,4.0,-999,-99.99,,,-99.99,,2013-02-27 10:42:00,
2013-02-27 05:53:00,51.0,-99.9,30.24,SW,225,4.0,4.0,-999,-99.99,,,-99.99,,2013-02-27 10:53:00,
2013-02-27 06:03:00,51.0,-99.9,30.24,SW,223,2.0,4.0,-999,-99.99,,,-99.99,,2013-02-27 11:03:00,
2013-02-27 06:12:00,51.0,-99.9,30.24,SW,223,2.0,4.0,-999,-99.99,,,-99.99,,2013-02-27 11:12:00,
2013-02-27 06:22:00,51.0,-99.9,30.24,WSW,253,2.0,3.0,-999,-99.99,,,-99.99,,2013-02-27 11:22:00,
2013-02-27 06:32:00,50.0,-99.9,30.24,East,89,2.0,2.0,-999,-99.99,,,-99.99,,2013-02-27 11:32:00,
2013-02-27 06:42:00,50.0,-99.9,30.24,East,89,2.0,2.0,-999,-99.99,,,-99.99,,2013-02-27 11:42:00,
2013-02-27 06:52:00,49.0,-99.9,30.24,ENE,75,2.0,3.0,-999,-99.99,,,-99.99,,2013-02-27 11:52:00,
2013-02-27 07:02:00,49.0,-99.9,30.24,ENE,75,2.0,3.0,-999,-99.99,,,-99.99,,2013-02-27 12:02:00,
2013-02-27 07:13:00,49.0,-99.9,30.24,ENE,75,2.0,3.0,-999,-99.99,,,-99.99,,2013-02-27 12:13:00,
2013-02-27 07:22:00,49.0,-99.9,30.24,ESE,108,2.0,3.0,-999,-99.99,,,-99.99,,2013-02-27 12:22:00,
2013-02-27 07:33:00,50.0,-99.9,30.24,ESE,121,2.0,3.0,-999,-99.99,,,-99.99,,2013-02-27 12:33:00,
2013-02-27 07:42:00,50.0,-99.9,30.24,ESE,121,2.0,3.0,-999,-99.99,,,-99.99,,2013-02-27 12:42:00,
2013-02-27 07:53:00,50.0,-99.9,30.24,ESE,121,2.0,3.0,-999,-99.99,,,-99.99,,2013-02-27 12:53:00,
2013-02-27 08:03:00,49.0,-99.9,30.24,East,99,1.0,2.0,-999,-99.99,,,-99.99,,2013-02-27 13:03:00,
2013-02-27 08:12:00,49.0,-99.9,30.24,East,99,1.0,2.0,-999,-99.99,,,-99.99,,2013-02-27 13:12:00,
2013-02-27 08:22:00,49.0,-99.9,30.24,SSE,156,0.0,2.0,-999,-99.99,,,-99.99,,2013-02-27 13:22:00,
2013-02-27 08:32:00,49.0,-99.9,30.24,SSE,156,0.0,2.0,-999,-99.99,,,-99.99,,2013-02-27 13:32:00,
2013-02-27 08:42:00,49.0,-99.9,30.25,ENE,59,1.0,2.0,-999,-99.99,,,-99.99,,2013-02-27 13:42:00,
2013-02-27 08:53:00,49.0,-99.9,30.25,NNE,21,1.0,3.0,-999,-99.99,,,-99.99,,2013-02-27 13:53:00,
2013-02-27 09:02:00,49.0,-99.9,30.25,NNE,21,1.0,3.0,-999,-99.99,,,-99.99,,2013-02-27 14:02:00,
2013-02-27 09:12:00,48.0,-99.9,30.26,NNW,333,3.0,4.0,-999,-99.99,,,-99.99,,2013-02-27 14:12:00,
2013-02-27 09:22:00,48.0,-99.9,30.26,NW,326,2.0,4.0,-999,-99.99,,,-99.99,,2013-02-27 14:22:00,
2013-02-27 09:32:00,48.0,-99.9,30.27,NNW,333,4.0,5.0,-999,-99.99,,,-99.99,,2013-02-27 14:32:00,
2013-02-27 09:42:00,48.0,-99.9,30.27,NNW,333,4.0,5.0,-999,-99.99,,,-99.99,,2013-02-27 14:42:00,
2013-02-27 09:53:00,48.0,-99.9,30.27,NNW,333,4.0,5.0,-999,-99.99,,,-99.99,,2013-02-27 14:53:00,
2013-02-27 10:02:00,46.0,-99.9,30.27,NNE,25,6.0,7.0,-999,-99.99,,,-99.99,,2013-02-27 15:02:00,
2013-02-27 10:12:00,45.0,-99.9,30.29,North,2,9.0,10.0,-999,-99.99,,,-99.99,,2013-02-27 15:12:00,
2013-02-27 10:23:00,45.0,-99.9,30.29,North,2,9.0,10.0,-999,-99.99,,,-99.99,,2013-02-27 15:23:00,
2013-02-27 10:32:00,46.0,-99.9,30.29,NNE,17,6.0,8.0,-999,-99.99,,,-99.99,,2013-02-27 15:32:00,
2013-02-27 10:42:00,46.0,-99.9,30.29,NNE,15,7.0,9.0,-999,-99.99,,,-99.99,,2013-02-27 15:42:00,
2013-02-27 10:52:00,46.0,-99.9,30.30,NNE,14,7.0,9.0,-999,-99.99,,,-99.99,,2013-02-27 15:52:00,
2013-02-27 11:02:00,47.0,-99.9,30.31,North,359,8.0,10.0,-999,-99.99,,,-99.99,,2013-02-27 16:02:00,
2013-02-27 11:12:00,47.0,-99.9,30.31,North,359,8.0,10.0,-999,-99.99,,,-99.99,,2013-02-27 16:12:00,
2013-02-27 11:22:00,47.0,-99.9,30.31,North,359,8.0,10.0,-999,-99.99,,,-99.99,,2013-02-27 16:22:00,
2013-02-27 11:32:00,47.0,-99.9,30.31,North,5,8.0,10.0,-999,-99.99,,,-99.99,,2013-02-27 16:32:00,
2013-02-27 11:42:00,47.0,-99.9,30.31,North,5,8.0,10.0,-999,-99.99,,,-99.99,,2013-02-27 16:42:00,
2013-02-27 11:52:00,47.0,-99.9,30.31,North,5,8.0,10.0,-999,-99.99,,,-99.99,,2013-02-27 16:52:00,
2013-02-27 12:02:00,48.0,-99.9,30.32,NNW,341,8.0,10.0,-999,-99.99,,,-99.99,,2013-02-27 17:02:00,
2013-02-27 12:11:00,48.0,-99.9,30.32,NNW,341,8.0,10.0,-999,-99.99,,,-99.99,,2013-02-27 17:11:00,
2013-02-27 12:22:00,49.0,-99.9,30.32,NNW,344,5.0,8.0,-999,-99.99,,,-99.99,,2013-02-27 17:22:00,
2013-02-27 12:32:00,49.0,-99.9,30.33,NNW,334,5.0,7.0,-999,-99.99,,,-99.99,,2013-02-27 17:32:00,
2013-02-27 12:42:00,51.0,-99.9,30.33,NW,315,4.0,6.0,-999,-99.99,,,-99.99,,2013-02-27 17:42:00,
2013-02-27 12:52:00,52.0,-99.9,30.33,WSW,248,1.0,4.0,-999,-99.99,,,-99.99,,2013-02-27 17:52:00,
2013-02-27 13:02:00,52.0,-99.9,30.33,NNE,30,3.0,5.0,-999,-99.99,,,-99.99,,2013-02-27 18:02:00,
2013-02-27 13:11:00,53.0,-99.9,30.33,West,261,1.0,4.0,-999,-99.99,,,-99.99,,2013-02-27 18:11:00,
2013-02-27 13:22:00,51.0,-99.9,30.33,WSW,247,3.0,4.0,-999,-99.99,,,-99.99,,2013-02-27 18:22:00,
2013-02-27 13:32:00,52.0,-99.9,30.33,SW,222,2.0,3.0,-999,-99.99,,,-99.99,,2013-02-27 18:32:00,
2013-02-27 13:42:00,51.0,-99.9,30.33,SW,231,4.0,5.0,-999,-99.99,,,-99.99,,2013-02-27 18:42:00,
2013-02-27 13:52:00,51.0,-99.9,30.33,SW,231,4.0,5.0,-999,-99.99,,,-99.99,,2013-02-27 18:52:00,
2013-02-27 14:02:00,51.0,-99.9,30.33,SW,232,3.0,5.0,-999,-99.99,,,-99.99,,2013-02-27 19:02:00,
2013-02-27 14:12:00,51.0,-99.9,30.33,SW,232,3.0,5.0,-999,-99.99,,,-99.99,,2013-02-27 19:12:00,
2013-02-27 14:22:00,53.0,-99.9,30.32,SW,216,3.0,4.0,-999,-99.99,,,-99.99,,2013-02-27 19:22:00,
2013-02-27 14:32:00,53.0,-99.9,30.32,SW,216,3.0,4.0,-999,-99.99,,,-99.99,,2013-02-27 19:32:00,
2013-02-27 14:42:00,53.0,-99.9,30.32,SW,216,3.0,4.0,-999,-99.99,,,-99.99,,2013-02-27 19:42:00,
2013-02-27 14:52:00,53.0,-99.9,30.32,WSW,242,4.0,6.0,-999,-99.99,,,-99.99,,2013-02-27 19:52:00,
2013-02-27 15:02:00,53.0,-99.9,30.32,WSW,242,4.0,6.0,-999,-99.99,,,-99.99,,2013-02-27 20:02:00,
2013-02-27 15:12:00,53.0,-99.9,30.32,WSW,242,4.0,6.0,-999,-99.99,,,-99.99,,2013-02-27 20:12:00,
2013-02-27 15:22:00,54.0,-99.9,30.32,SW,215,2.0,4.0,-999,-99.99,,,-99.99,,2013-02-27 20:22:00,
2013-02-27 15:32:00,54.0,-99.9,30.32,SW,215,2.0,4.0,-999,-99.99,,,-99.99,,2013-02-27 20:32:00,
2013-02-27 15:42:00,54.0,-99.9,30.32,SW,215,2.0,4.0,-999,-99.99,,,-99.99,,2013-02-27 20:42:00,
2013-02-27 15:53:00,54.0,-99.9,30.32,SW,221,4.0,4.0,-999,-99.99,,,-99.99,,2013-02-27 20:53:00,
2013-02-27 16:02:00,54.0,-99.9,30.32,SW,221,4.0,4.0,-999,-99.99,,,-99.99,,2013-02-27 21:02:00,
2013-02-27 16:11:00,55.0,-99.9,30.31,SSE,163,4.0,5.0,-999,-99.99,,,-99.99,,2013-02-27 21:11:00,
2013-02-27 16:22:00,55.0,-99.9,30.30,South,177,4.0,5.0,-999,-99.99,,,-99.99,,2013-02-27 21:22:00,
2013-02-27 16:32:00,55.0,-99.9,30.29,South,174,4.0,6.0,-999,-99.99,,,-99.99,,2013-02-27 21:32:00,
2013-02-27 16:42:00,55.0,-99.9,30.29,South,174,4.0,6.0,-999,-99.99,,,-99.99,,2013-02-27 21:42:00,
2013-02-27 16:52:00,56.0,-99.9,30.29,SW,230,5.0,7.0,-999,-99.99,,,-99.99,,2013-02-27 21:52:00,
2013-02-27 17:02:00,56.0,-99.9,30.29,WSW,239,5.0,7.0,-999,-99.99,,,-99.99,,2013-02-27 22:02:00,
2013-02-27 17:12:00,56.0,-99.9,30.29,SW,232,7.0,8.0,-999,-99.99,,,-99.99,,2013-02-27 22:12:00,
2013-02-27 17:22:00,56.0,-99.9,30.29,SW,232,7.0,8.0,-999,-99.99,,,-99.99,,2013-02-27 22:22:00,
2013-02-27 17:32:00,56.0,-99.9,30.29,SW,232,7.0,8.0,-999,-99.99,,,-99.99,,2013-02-27 22:32:00,
2013-02-27 17:42:00,56.0,-99.9,30.29,SW,232,7.0,8.0,-999,-99.99,,,-99.99,,2013-02-27 22:42:00,
2013-02-27 17:52:00,57.0,-99.9,30.28,SW,230,5.0,6.0,-999,-99.99,,,-99.99,,2013-02-27 22:52:00,
2013-02-27 18:02:00,57.0,-99.9,30.28,SW,230,5.0,6.0,-999,-99.99,,,-99.99,,2013-02-27 23:02:00,
2013-02-27 18:12:00,57.0,-99.9,30.28,SW,230,5.0,6.0,-999,-99.99,,,-99.99,,2013-02-27 23:12:00,
2013-02-27 18:22:00,57.0,-99.9,30.28,SW,230,5.0,6.0,-999,-99.99,,,-99.99,,2013-02-27 23:22:00,
2013-02-27 18:32:00,56.0,-99.9,30.28,SW,220,11.0,13.0,-999,-99.99,,,-99.99,,2013-02-27 23:32:00,
2013-02-27 18:42:00,56.0,-99.9,30.28,SW,220,11.0,13.0,-999,-99.99,,,-99.99,,2013-02-27 23:42:00,
2013-02-27 18:53:00,56.0,-99.9,30.28,SW,217,6.0,10.0,-999,-99.99,,,-99.99,,2013-02-27 23:53:00,
2013-02-27 19:02:00,56.0,-99.9,30.28,SW,214,6.0,12.0,-999,-99.99,,,-99.99,,2013-02-28 00:02:00,
2013-02-27 19:13:00,56.0,-99.9,30.28,SW,216,6.0,10.0,-999,-99.99,,,-99.99,,2013-02-28 00:13:00,
2013-02-27 19:22:00,56.0,-99.9,30.28,SW,219,6.0,9.0,-999,-99.99,,,-99.99,,2013-02-28 00:22:00,
2013-02-27 19:32:00,56.0,-99.9,30.28,SW,219,6.0,9.0,-999,-99.99,,,-99.99,,2013-02-28 00:32:00,
2013-02-27 19:42:00,57.0,-99.9,30.28,SW,220,7.0,9.0,-999,-99.99,,,-99.99,,2013-02-28 00:42:00,
2013-02-27 19:52:00,57.0,-99.9,30.28,SW,215,6.0,9.0,-999,-99.99,,,-99.99,,2013-02-28 00:52:00,
2013-02-27 20:01:00,57.0,-99.9,30.28,SW,215,6.0,9.0,-999,-99.99,,,-99.99,,2013-02-28 01:01:00,
2013-02-27 20:11:00,57.0,-99.9,30.28,SW,215,6.0,9.0,-999,-99.99,,,-99.99,,2013-02-28 01:11:00,
2013-02-27 20:22:00,57.0,-99.9,30.28,SW,220,8.0,11.0,-999,-99.99,,,-99.99,,2013-02-28 01:22:00,
2013-02-27 20:32:00,57.0,-99.9,30.28,SW,220,8.0,11.0,-999,-99.99,,,-99.99,,2013-02-28 01:32:00,
2013-02-27 20:42:00,57.0,-99.9,30.28,SW,220,8.0,11.0,-999,-99.99,,,-99.99,,2013-02-28 01:42:00,
2013-02-27 20:52:00,56.0,-99.9,30.29,SW,221,8.0,10.0,-999,-99.99,,,-99.99,,2013-02-28 01:52:00,
2013-02-27 21:01:00,56.0,-99.9,30.30,SSW,206,3.0,7.0,-999,-99.99,,,-99.99,,2013-02-28 02:01:00,
2013-02-27 21:11:00,56.0,-99.9,30.30,SSW,206,3.0,7.0,-999,-99.99,,,-99.99,,2013-02-28 02:11:00,
2013-02-27 21:22:00,56.0,-99.9,30.30,SSW,206,3.0,7.0,-999,-99.99,,,-99.99,,2013-02-28 02:22:00,
2013-02-27 21:32:00,56.0,-99.9,30.30,SSW,213,2.0,4.0,-999,-99.99,,,-99.99,,2013-02-28 02:32:00,
2013-02-27 21:42:00,56.0,-99.9,30.30,SSW,213,2.0,4.0,-999,-99.99,,,-99.99,,2013-02-28 02:42:00,
2013-02-27 21:52:00,56.0,-99.9,30.30,SSW,213,2.0,4.0,-999,-99.99,,,-99.99,,2013-02-28 02:52:00,
2013-02-27 22:02:00,56.0,-99.9,30.30,SSW,213,2.0,4.0,-999,-99.99,,,-99.99,,2013-02-28 03:02:00,
2013-02-27 22:11:00,56.0,-99.9,30.30,SSW,213,2.0,4.0,-999,-99.99,,,-99.99,,2013-02-28 03:11:00,
2013-02-27 23:32:00,54.0,-99.9,30.34,South,186,8.0,10.0,-999,-99.99,,,-99.99,,2013-02-28 04:32:00,
2013-02-27 23:42:00,54.0,-99.9,30.34,South,186,8.0,10.0,-999,-99.99,,,-99.99,,2013-02-28 04:42:00,
2013-02-27 23:52:00,55.0,-99.9,30.35,SSW,195,6.0,8.0,-999,-99.99,,,-99.99,,2013-02-28 04:52:00,